Location: Melbourne
(37.8666°S, 145.1333°E)
Time: 21:55:17
(UTC+10:00)

Daily predictions for brighter satellites

Satellite Brightness Start Highest point End
(mag) Time Altitude Azimuth Time Altitude Azimuth Time Altitude Azimuth
Geosat 4.0 18:39:26 10° SSE 18:44:31 68° ENE 18:49:32 10° NNW
CZ-4 R/B 2.4 18:41:19 10° S 18:45:25 55° WSW 18:49:24 10° NNW
Cosmos 1437 4.4 18:43:27 10° NE 18:45:43 17° E 18:48:00 10° SE
SMAP 3.1 18:41:09 10° SSE 18:45:54 89° E 18:50:35 10° NNW
Tsikada Rocket 4.0 18:40:46 10° N 18:46:56 84° E 18:53:13 10° S
Cosmos 1844 Rocket 3.3 18:42:00 10° NNE 18:47:01 33° ENE 18:52:04 10° SE
Cosmos 1470 3.0 18:46:09 10° S 18:50:07 49° E 18:54:00 10° NNE
AQUARIUS 4.4 18:45:37 10° S 18:50:12 79° WSW 18:54:43 10° NNW
BREEZE-M DEB (TANK) 4.5 18:46:17 10° NNW 18:50:18 21° NNE 18:52:47 10° E
Cosmos 494 Rocket 4.2 18:45:37 10° S 18:50:53 57° ESE 18:56:04 10° NNE
SJ-6B 4.1 18:52:54 10° SE 18:55:37 18° E 18:58:20 10° NE
Cosmos 1733 3.5 18:53:01 10° S 18:56:52 48° E 19:00:41 10° NNE
Cosmos 405 4.4 18:54:21 10° SSE 18:57:08 20° ESE 18:59:53 10° NE
SeaSat 1 4.0 18:52:43 10° N 18:57:20 40° WNW 19:02:01 10° SW
Cosmos 1378 4.3 18:56:45 10° NE 18:59:46 23° E 19:02:48 10° SE
ATLAS 5 CENTAUR R/B 3.6 18:59:55 10° SW 19:03:14 50° NW 19:13:49 10° NNE
COSMOS 2441 4.5 18:58:43 10° SSE 19:03:38 57° E 19:08:28 10° N
Cosmos 1441 Rocket 3.2 19:01:28 10° N 19:05:17 61° E 19:09:13 10° SSE
MSX 3.8 19:00:08 10° SSE 19:05:54 66° ENE 19:11:37 10° N
Cosmos 1484 Rocket 2.6 19:09:14 10° SSE 19:13:02 67° E 19:16:46 10° N
Tiangong 1 1.0 19:12:44 10° WSW 19:15:53 89° SSW 19:17:51 21° ENE
Cosmos 1707 3.0 19:16:15 10° NNW 19:20:10 76° W 19:24:10 10° S
Okean 3 Rocket 3.6 19:16:49 10° N 19:21:18 68° E 19:25:49 10° SSE
Blok-2BL 3.9 19:20:12 10° S 19:21:56 21° SE 19:21:56 21° SE
Cosmos 1437 Rocket 3.0 19:20:26 10° S 19:24:34 56° E 19:28:39 10° NNE
FREGAT/IRIS 3.3 19:23:50 10° SSE 19:26:49 35° E 19:29:45 10° NNE
ATLAS 5 CENTAUR R/B 4.3 19:24:36 10° NNW 19:28:48 19° NNE 19:35:53 13° NE
IDEFIX/ARIANE 42P 3.7 19:24:41 10° S 19:29:42 47° WSW 19:34:40 10° NW
DELTA 2 R/B (1) 3.6 19:29:27 10° WSW 19:35:06 86° NNW 19:38:29 25° ENE
NOAA 12 4.2 19:30:28 10° SSE 19:35:40 53° E 19:40:46 10° N
ASTEX 1 3.4 19:32:38 10° N 19:37:34 88° E 19:42:35 10° S
CZ-3B DEB 4.0 19:29:34 10° W 19:37:35 28° SW 19:41:15 10° SSE
COSMOS 2406 3.3 19:31:51 10° SSW 19:37:42 82° WNW 19:43:29 10° NNE
ALOS 3.9 19:34:38 10° SE 19:36:19 17° ESE 19:36:19 17° ESE
Meteor 2-1 Rocket 4.1 19:32:37 10° S 19:38:12 67° E 19:43:45 10° NNE
BREEZE-M DEB 4.3 19:38:48 10° SW 19:40:40 38° SSE 19:40:40 38° SSE
Cosmos 2279 Rocket 4.0 19:35:13 10° S 19:41:27 60° E 19:47:34 10° NNE
Cosmos 2278 Rocket 2.3 19:40:06 10° N 19:45:31 49° ENE 19:51:01 10° SSE
USA 234 3.6 19:40:05 10° SE 19:46:38 68° SW 19:53:10 10° WNW
Cosmos 2221 2.5 19:42:45 10° S 19:47:15 81° E 19:51:08 13° N
Lacrosse 5 rocket 3.5 19:46:28 10° S 19:48:28 13° SSE 19:49:15 13° SE
BREEZE-M DEB (TANK) 3.0 19:48:51 10° NNW 19:51:57 52° NE 20:00:43 10° ESE
GP-B 3.4 19:51:22 36° NE 19:52:41 47° E 19:57:01 10° S
OAO 2 Rocket 3.5 19:48:43 10° W 19:53:34 56° N 19:55:15 37° NE
Cosmos 2056 Rocket 3.7 19:49:58 10° N 19:55:01 45° ENE 20:00:02 10° SSE
SAR-Lupe-4 4.3 19:55:27 10° S 19:59:01 54° WSW 20:02:32 10° NNW
Cosmos 921 Rocket 4.4 19:58:48 10° NW 20:02:50 40° WSW 20:06:58 10° S
Meteor 1-24 Rocket 4.1 19:57:38 10° NNW 20:02:53 61° W 20:08:15 10° S
Cosmos 1371 Rocket 3.9 19:59:21 10° N 20:04:43 77° ENE 20:10:08 10° SSE
CZ-3A R/B 2.9 20:00:02 10° SW 20:04:56 23° WNW 20:06:21 16° NNW
USA 229 DEB 4.0 19:59:12 10° SW 20:06:14 68° WNW 20:11:08 21° NNE
USA 229 4.0 19:59:17 10° SW 20:06:20 69° WNW 20:11:11 21° NNE
SL-27 R/B 3.3 20:04:22 10° SSW 20:07:59 50° WNW 20:09:18 32° NNW
Cosmos 1766 Rocket 3.5 20:04:22 10° N 20:08:43 86° W 20:13:11 10° S
Cosmos 2082 Rocket 3.4 20:05:00 10° S 20:09:36 25° SE 20:09:36 25° SE
APEX 4.0 20:10:16 10° NW 20:13:21 39° WSW 20:14:33 25° SSW
Cosmos 1818 3.4 20:09:54 10° NNW 20:15:17 86° ENE 20:20:42 10° SSE
Cosmos 1076 Rocket 4.3 20:13:32 10° NNW 20:17:50 53° W 20:22:12 10° S
Resurs 1-3 3.5 20:13:38 10° SSE 20:17:57 73° E 20:17:57 73° E
NOSS 3-1 (C) 3.5 20:12:30 10° SSW 20:18:52 57° SE 20:19:55 50° E
Resurs 01 Rocket 1.6 20:15:23 10° S 20:19:54 82° WSW 20:23:04 19° NNW
Cosmos 1624 Rocket 3.9 20:16:32 10° NNW 20:21:46 89° ENE 20:27:06 10° SSE
NOSS 3-1 (A) 3.7 20:18:01 10° SSW 20:24:17 48° SE 20:24:55 46° ESE
Helios 1A 3.0 20:21:18 10° S 20:25:34 80° WSW 20:25:48 76° WNW
Nadezhda 4 Rocket 3.8 20:22:18 20° N 20:26:44 79° E 20:32:56 10° S
METEOR-M 4.4 20:22:07 10° S 20:27:31 67° WSW 20:32:51 10° NNW
In-Cosmos 22 4.3 20:23:30 10° NNW 20:29:06 73° W 20:34:38 10° S
Cosmos 1844 Rocket 4.4 20:25:47 10° WNW 20:30:51 32° WSW 20:35:58 10° S
Cosmos 1328 Rocket 4.3 20:27:50 10° S 20:30:53 42° S 20:30:53 42° S
Cosmos 407 Rocket 4.0 20:27:20 10° S 20:31:31 44° SE 20:31:31 44° SE
Cosmos 1092 Rocket 3.8 20:33:49 64° ENE 20:34:07 65° E 20:40:18 10° SSE
SL-19 R/B 4.3 20:36:15 63° NNE 20:37:19 83° ESE 20:43:37 10° SSW
ATLAS 2AS CENTAUR R/B 3.9 20:33:20 10° S 20:37:55 22° SE 20:37:55 22° SE
FENGYUN 3A 3.6 20:34:22 10° SSE 20:39:11 68° SE 20:39:11 68° SE
Spot 2 Rocket 4.2 20:38:34 10° S 20:43:36 53° WSW 20:48:32 10° NNW
Cosmos 44 Rocket 3.9 20:46:16 10° SSW 20:50:05 55° SSW 20:50:05 55° SSW
Cosmos 2228 Rocket 4.2 20:52:56 10° SSW 20:56:46 45° WSW 20:56:46 45° WSW
Cosmos 1833 Rocket 3.7 20:53:26 10° S 20:57:11 36° SSE 20:57:11 36° SSE
USA 81 4.5 20:55:44 10° S 21:00:09 59° SW 21:00:09 59° SW
Lacrosse 5 4.2 21:08:36 10° SSW 21:10:48 15° SSE 21:10:48 15° SSE
ALOS 3.8 21:11:17 10° S 21:14:52 34° SW 21:14:52 34° SW
Lacrosse 5 rocket 4.2 21:24:09 10° SW 21:25:00 16° SW 21:25:00 16° SW
Cosmos 2278 Rocket 4.3 21:25:23 10° WNW 21:29:51 23° SW 21:34:23 10° S
FALCON 9 R/B 3.8 21:23:41 10° W 21:40:26 48° NW 21:40:26 48° NW
Cosmos 2082 Rocket 3.9 21:48:28 10° SW 21:51:28 29° SW 21:51:28 29° SW
ATLAS 2AS CENTAUR R/B 4.4 22:23:12 10° SW 22:25:21 23° SW 22:25:21 23° SW
